Lapse_Rate
7.3 7.4 7.4 7.4 7.5 7.5 7.6 7.6 7.6 7.6 7.5 7.4 7.5 7.6 7.7 7.7 7.5 7.6 7.5 7.5 7.3 7.1 7.0 7.0 6.7 6.7 6.7 6.7 6.8 6.7 6.4 6.7 7.1 7.8 8.2 7.9 7.7 7.8 7.9 8.2 8.3 8.5 8.6 8.6 8.0
7.2 7.2 7.3 7.3 7.4 7.4 7.5 7.5 7.5 7.5 7.5 7.5 7.4 7.4 7.5 7.7 7.7 7.6 7.7 7.6 7.5 7.4 7.2 7.0 6.9 6.7 6.6 6.9 6.5 6.4 6.5 7.1 7.6 7.7 8.2 7.9 7.9 7.6 7.8 7.7 7.9 8.3 8.4 8.5 8.2
7.2 7.2 7.3 7.4 7.3 7.3 7.3 7.4 7.4 7.3 7.4 7.5 7.5 7.4 7.4 7.5 7.6 7.8 7.6 7.6 7.6 7.4 7.3 7.2 6.8 6.6 6.7 6.8 6.5 6.5 6.6 7.7 7.6 7.4 7.6 7.9 7.8 7.9 7.7 7.7 7.7 7.8 8.3 8.4 8.4
7.0 7.1 7.1 7.2 7.3 7.2 7.2 7.2 7.3 7.3 7.3 7.3 7.4 7.4 7.4 7.4 7.4 7.5 7.6 7.4 7.5 7.4 7.3 7.3 7.1 6.7 6.7 6.7 6.9 6.4 7.0 7.5 7.7 7.5 7.2 7.6 7.7 8.0 7.7 7.9 7.8 8.0 8.1 8.3 8.5
6.7 6.8 6.9 7.0 7.1 7.1 7.1 7.1 7.1 7.2 7.2 7.3 7.3 7.3 7.4 7.4 7.8 7.2 7.6 7.5 7.4 7.5 7.5 7.4 7.4 7.0 6.9 6.8 6.8 6.5 7.2 7.5 7.5 7.2 7.1 7.3 7.9 7.7 8.1 7.5 7.8 7.9 8.2 8.6 8.6
6.5 6.6 6.7 6.8 6.9 7.0 7.1 7.2 7.2 7.1 7.2 7.2 7.3 7.3 7.3 7.6 7.5 7.4 7.6 7.6 7.5 7.4 7.5 7.5 7.2 7.0 6.9 6.7 6.7 6.6 6.8 7.4 7.5 7.7 7.4 7.4 7.8 7.6 7.8 7.9 7.8 7.8 8.1 9.1 8.8
6.5 6.6 6.7 6.7 6.7 6.9 7.0 7.1 7.1 7.0 7.0 7.1 7.2 7.3 7.5 7.8 7.3 7.6 7.7 7.4 7.4 7.4 7.4 7.3 7.0 7.1 7.1 7.1 6.9 6.7 6.8 7.4 7.6 8.2 7.9 7.8 7.7 7.6 7.9 8.0 8.0 7.9 8.4 8.6 8.1
6.3 6.5 6.6 6.6 6.6 6.8 6.8 6.9 6.9 7.0 7.1 7.1 7.1 7.2 7.6 7.4 7.5 7.7 7.7 7.4 7.2 7.3 7.3 7.1 6.9 6.9 7.1 6.9 6.8 6.7 7.0 7.1 7.8 8.0 8.2 8.2 8.0 8.2 8.1 8.2 8.2 8.1 8.2 7.9 7.6
6.1 6.3 6.4 6.5 6.6 6.8 6.7 6.8 6.9 7.0 7.0 7.0 7.1 7.2 7.5 7.5 7.5 7.3 7.4 7.6 7.1 7.1 7.1 6.8 6.7 6.8 6.9 6.8 6.8 6.7 6.6 7.0 7.8 7.8 8.1 8.3 8.0 8.2 8.5 8.4 8.2 8.2 8.0 7.8 7.9
5.9 6.0 6.1 6.2 6.4 6.6 6.4 6.6 6.7 6.8 6.8 6.9 7.1 7.0 7.3 7.4 7.5 7.4 7.4 7.3 7.3 6.9 6.9 6.9 6.6 6.6 6.9 6.8 6.5 7.0 7.0 7.1 7.3 8.1 8.1 8.0 8.1 8.4 8.4 8.7 8.3 8.1 8.1 8.0 8.2
5.9 5.9 5.9 5.9 6.1 6.3 6.2 6.3 6.4 6.6 7.0 7.1 7.2 7.3 7.4 7.4 7.3 7.3 7.0 7.0 7.0 6.9 7.0 7.0 6.6 6.8 8.0 7.5 7.0 6.9 6.9 6.8 7.1 7.8 8.0 8.3 8.2 8.2 8.2 8.4 8.1 7.8 8.0 7.8 7.9
5.7 5.9 6.0 5.7 5.9 6.0 6.1 6.1 6.2 6.4 7.0 7.1 7.1 7.4 6.9 6.9 7.1 7.0 7.0 6.8 6.7 6.9 6.9 6.6 6.8 7.7 7.1 6.8 6.7 6.7 6.7 6.7 7.1 7.5 7.7 8.0 8.3 8.5 8.1 8.1 8.4 8.5 8.3 8.2 7.9
5.9 5.9 6.0 5.8 5.8 5.8 5.8 5.8 5.9 6.0 6.4 7.3 7.2 7.4 7.0 6.6 6.8 7.0 6.8 6.8 6.8 6.7 6.9 6.9 7.3 7.3 6.9 6.8 6.6 6.7 6.7 7.1 7.2 7.6 7.6 7.8 8.1 8.3 8.0 7.8 8.1 8.3 8.3 8.2 8.3
5.7 5.7 5.9 5.9 6.0 5.7 5.8 5.6 5.7 5.6 6.2 7.0 7.0 7.0 7.0 6.8 6.5 6.8 6.8 6.6 6.6 7.0 6.7 6.4 7.1 7.0 6.9 6.9 6.8 6.7 7.2 7.4 7.4 7.3 7.5 7.6 7.3 8.4 8.3 8.1 7.7 7.9 7.8 7.6 7.9
5.6 5.5 5.6 5.7 5.6 5.6 5.8 5.7 5.7 5.7 4.7 6.4 6.2 6.0 6.3 6.6 6.4 6.7 6.7 6.3 6.4 6.8 6.6 6.6 7.1 7.2 7.1 7.4 7.1 7.1 7.3 7.3 7.7 7.5 7.6 7.6 7.4 7.7 8.1 8.2 7.6 7.7 7.7 7.4 7.6
5.3 5.4 5.4 5.4 5.8 5.7 5.8 5.8 5.7 5.9 4.9 6.2 5.9 6.0 6.1 6.2 6.4 6.4 6.5 6.4 6.5 6.4 6.4 6.6 6.8 6.7 6.8 6.9 7.0 7.0 7.4 7.5 7.5 7.5 6.8 7.4 7.6 7.3 8.0 8.1 8.5 8.6 8.0 7.5 7.8
5.1 5.3 5.6 5.8 5.7 5.6 5.9 5.9 5.9 5.4 6.1 5.9 5.8 6.1 6.2 6.1 6.2 6.5 6.4 6.3 6.3 6.0 6.0 6.4 6.7 6.9 6.8 6.8 6.9 7.0 7.2 6.8 6.9 6.4 5.5 7.5 7.8 7.3 7.4 8.0 8.4 8.6 8.9 8.5 8.3
5.8 6.5 6.8 6.6 6.3 6.3 6.4 6.1 5.5 5.1 5.3 5.5 5.7 5.7 6.0 6.1 6.3 6.7 6.5 6.2 5.8 5.8 6.3 6.4 6.5 6.8 6.9 7.0 7.3 7.5 7.6 7.1 6.7 5.8 6.2 7.7 7.4 7.4 7.8 8.1 8.1 8.4 8.5 8.4 8.4
6.6 7.0 7.1 7.1 6.9 6.8 6.7 6.2 4.8 4.6 5.2 5.9 5.9 5.7 5.8 6.0 6.5 6.5 5.8 5.5 5.0 5.5 5.9 5.9 6.4 6.8 6.7 6.8 7.2 7.4 7.5 7.7 7.7 7.0 7.1 7.5 7.1 7.4 7.6 8.0 8.5 8.7 8.5 8.4 8.2
7.3 7.5 7.4 7.2 7.0 7.2 6.8 6.3 5.4 5.0 5.7 6.3 6.4 5.8 5.9 6.2 6.4 6.1 5.1 4.5 4.5 4.8 4.9 4.8 5.9 6.6 6.7 6.9 7.1 7.3 7.5 7.7 7.3 6.2 6.3 6.2 6.9 7.2 7.8 8.1 8.1 8.4 8.5 8.4 8.3
7.1 7.4 7.5 7.4 7.2 7.2 6.9 6.2 5.3 5.0 5.5 6.4 6.2 6.2 6.0 6.0 6.1 5.6 4.6 4.1 4.5 4.7 5.1 5.0 5.3 6.5 7.1 7.1 7.1 7.4 7.4 7.6 7.6 7.7 6.5 6.2 6.5 6.4 6.8 7.3 7.6 7.9 8.1 8.1 8.4
7.2 7.1 7.4 7.2 7.1 6.9 6.5 5.7 5.6 5.2 5.6 5.7 5.7 6.0 5.9 6.1 6.1 6.0 5.0 4.4 4.3 4.6 5.4 5.0 5.0 5.7 7.0 6.9 7.2 7.4 7.5 7.5 7.6 7.0 7.2 7.4 6.9 6.5 6.6 6.6 7.0 7.7 8.0 8.0 8.1
6.9 7.0 6.8 7.0 6.8 6.4 6.0 5.8 5.7 5.3 5.8 5.7 5.7 5.6 5.5 6.2 6.1 5.6 4.7 4.4 4.4 4.9 5.3 5.2 5.2 5.4 6.8 7.2 6.8 7.1 6.9 6.8 6.9 6.8 7.1 6.4 6.6 7.3 7.3 6.9 7.0 7.5 7.7 8.1 8.2
6.7 6.9 6.5 6.7 5.9 6.1 6.3 5.7 5.4 5.1 5.3 5.2 5.1 5.3 5.3 5.3 5.8 5.2 4.9 4.7 4.6 4.9 4.9 5.1 5.3 5.5 5.8 6.0 6.0 6.3 6.3 6.6 6.6 6.6 6.4 6.6 7.1 7.9 7.3 7.1 7.0 7.0 7.5 7.9 8.2
6.2 6.2 6.0 6.2 6.3 5.9 6.0 5.6 5.5 5.5 5.2 5.9 5.7 5.4 5.3 5.2 5.4 5.3 5.3 5.0 4.8 4.8 5.2 5.3 5.2 5.2 5.6 6.2 6.3 6.2 6.0 6.0 6.3 6.4 6.2 7.4 7.0 6.9 7.0 6.9 6.7 6.9 7.0 7.3 8.0
5.8 6.2 6.5 6.1 6.0 6.0 6.0 5.7 5.5 5.5 5.1 5.2 5.5 5.2 5.1 5.1 4.9 4.7 4.8 4.8 4.8 5.0 4.9 4.8 4.8 4.8 5.0 5.6 5.9 6.4 6.7 6.2 6.4 6.5 6.4 6.7 6.8 6.2 6.5 6.8 7.0 7.1 7.0 7.0 7.7
5.7 5.7 6.1 6.3 6.2 6.0 5.8 5.6 5.6 5.5 5.6 5.3 5.3 5.3 5.3 5.0 4.8 4.7 4.5 4.4 4.4 4.6 4.9 4.2 4.2 4.3 4.5 4.8 5.1 5.3 6.3 7.0 6.6 6.4 6.4 6.3 6.3 6.1 6.4 6.8 7.2 7.4 7.6 7.4 7.5
Wind_Speed
28 28 28 29 29 29 29 28 27 26 24 24 23 22 22 23 23 3 7 11 7 11 1 4 2 3 3 2 4 4 4 3 5 5 4 1 3 4 1 10 2 3 6 19 18
30 30 31 32 31 31 30 28 28 26 24 23 21 21 21 21 5 8 12 8 15 5 4 2 2 3 2 2 2 4 4 9 7 5 4 2 3 7 4 6 1 5 15 22 24
31 32 33 33 34 32 31 29 28 26 24 21 19 19 20 16 5 7 3 14 12 9 2 1 3 1 2 2 4 5 6 6 4 5 3 1 3 4 9 6 6 14 24 22 24
32 33 34 34 34 33 32 30 28 26 22 19 17 17 18 2 5 2 4 11 8 6 5 4 3 4 3 4 3 2 7 5 3 5 4 5 4 5 10 3 11 22 25 23 25
34 34 35 35 35 33 33 31 28 24 21 17 15 13 5 2 10 6 5 7 7 6 6 5 4 5 4 4 0 5 5 3 3 2 7 6 10 5 7 4 15 22 25 24 22
36 37 37 37 36 35 33 32 28 24 20 15 10 7 2 5 4 5 6 4 3 4 5 5 5 5 3 3 3 3 5 5 5 5 7 9 2 2 5 3 18 19 23 26 25
38 38 40 39 38 36 36 33 29 25 21 15 7 4 3 15 4 7 6 4 4 5 5 4 4 5 2 3 2 3 4 7 5 5 6 9 4 10 2 7 18 10 16 15 19
40 39 39 40 39 38 37 33 31 25 15 10 6 4 8 5 4 5 2 6 6 6 3 6 4 3 3 2 6 2 2 3 4 4 6 11 9 16 8 14 17 17 15 18 21
41 40 40 40 40 39 39 34 18 5 7 10 5 3 9 7 4 8 8 5 4 4 4 2 2 3 5 4 5 7 3 3 6 5 5 2 4 4 11 10 15 16 17 18 17
41 41 42 41 40 40 39 24 6 6 4 3 3 1 5 1 3 3 7 8 3 1 3 4 4 4 3 4 6 5 3 4 4 3 5 2 7 4 17 14 20 20 21 20 20
42 42 43 42 41 38 16 4 6 4 5 6 3 4 4 9 4 2 4 6 4 3 5 1 4 7 12 7 5 3 2 4 3 5 3 5 4 8 15 13 10 14 17 19 22
42 43 43 43 39 27 7 5 3 6 10 9 14 13 14 3 5 4 3 5 5 6 3 2 7 11 6 5 5 4 4 6 7 7 7 6 7 11 14 18 19 19 16 15 9
44 43 43 42 38 4 1 6 5 4 5 9 6 6 6 9 7 7 5 4 4 7 7 7 6 7 7 4 5 5 5 5 8 6 2 3 2 5 10 13 14 10 10 7 16
44 44 43 41 4 5 4 6 10 2 3 5 5 6 5 8 4 9 9 6 3 10 7 6 8 5 5 6 8 7 9 10 6 3 3 2 4 5 15 20 15 17 13 12 11
46 45 41 19 3 4 6 14 10 2 3 3 2 2 2 7 0 4 5 4 8 6 6 7 4 7 5 10 7 9 5 10 6 4 3 1 3 6 8 16 19 16 8 10 15
48 47 36 3 2 6 13 10 1 2 5 7 7 7 3 4 2 5 3 3 4 6 2 7 2 4 9 5 6 2 1 6 5 4 2 5 5 5 5 9 19 11 11 14 17
49 47 18 3 4 13 10 2 0 3 10 8 5 8 6 5 6 8 5 9 5 2 5 2 5 3 5 4 3 4 5 1 1 1 5 6 4 9 7 7 10 18 19 18 16
49 34 9 4 19 13 2 1 1 6 5 6 5 12 4 8 5 8 4 5 8 6 1 5 4 7 1 8 7 6 9 5 6 4 2 3 7 7 9 9 8 13 16 18 20
39 5 5 5 24 0 1 4 3 6 8 10 9 6 7 6 6 4 8 11 5 9 4 4 4 5 4 1 9 3 4 8 5 0 3 4 7 5 6 2 3 3 6 11 14
8 4 4 31 20 1 2 5 4 8 7 6 7 10 7 9 8 6 6 13 9 8 6 2 4 2 5 3 5 3 4 3 2 6 4 4 5 4 5 8 10 9 6 7 13
3 4 7 37 3 5 3 4 4 12 10 10 8 5 7 6 5 5 12 6 14 10 5 5 2 6 4 6 3 5 3 3 3 4 6 2 2 7 7 8 8 9 7 8 12
4 4 8 13 6 3 3 11 6 11 11 8 7 9 6 8 7 4 5 9 14 9 5 3 2 3 4 5 7 7 4 4 3 2 1 3 6 2 7 7 7 9 14 14 14
5 3 5 6 5 5 7 10 10 9 12 6 11 8 6 6 4 9 6 9 12 9 8 6 2 3 2 4 6 6 6 5 3 1 4 4 4 7 10 10 10 12 13 16 19
3 5 4 4 1 3 6 8 13 10 10 6 7 8 8 8 6 6 7 8 6 7 17 6 2 2 1 2 4 3 6 5 4 1 4 5 4 13 10 10 11 13 15 16 18
4 1 2 4 6 10 6 7 15 11 9 14 5 9 7 7 8 9 7 5 5 8 6 4 2 4 5 10 8 9 7 5 5 5 4 5 7 8 3 6 10 12 16 18 21
3 3 4 4 5 7 7 10 14 15 7 11 9 6 6 4 3 6 8 6 3 4 3 1 3 3 5 9 6 9 9 6 7 9 12 13 13 9 8 9 14 13 14 16 17
2 2 2 4 4 4 3 8 9 9 4 8 8 5 2 3 3 4 5 6 7 5 3 3 2 1 3 7 5 6 10 12 2 2 5 4 3 8 6 10 11 12 13 14 15
Wind_Direction
352 349 346 342 338 335 331 329 327 324 321 319 319 318 318 321 320 302 238 220 194 213 4 285 80 9 91 218 173 137 84 193 215 185 242 168 107 351 285 143 27 72 155 143 137
350 347 344 340 337 334 331 328 325 321 319 318 317 317 317 324 305 245 247 213 224 173 169 194 351 17 17 230 205 135 150 207 204 231 253 99 159 150 126 160 78 70 115 133 134
349 345 342 339 336 333 329 325 322 319 317 317 317 316 317 324 303 249 248 202 215 196 263 89 130 201 191 195 204 173 198 194 230 219 174 211 149 181 144 205 202 159 151 148 143
347 344 341 338 334 330 326 322 319 316 315 314 315 315 315 237 271 284 137 170 171 161 140 127 137 157 201 194 226 216 240 192 256 182 160 193 154 196 184 151 169 153 155 156 156
346 343 340 336 333 328 324 319 315 312 309 308 312 317 334 242 251 269 129 125 125 135 160 154 152 166 190 206 41 185 266 178 243 257 232 144 198 207 216 104 137 150 153 159 157
345 342 339 336 332 328 322 317 312 306 302 300 303 309 254 251 252 293 139 131 164 164 167 152 186 205 237 224 160 221 265 265 236 204 172 158 330 336 243 210 151 158 160 163 164
344 341 338 335 332 327 321 315 307 298 287 282 273 223 263 236 134 348 328 193 188 187 177 210 200 155 183 278 221 248 302 321 190 202 147 118 21 235 99 171 166 164 151 165 165
344 341 337 334 332 326 320 315 310 296 268 253 212 178 246 247 271 287 160 290 215 225 210 223 197 218 173 287 12 351 77 263 306 142 190 141 213 223 171 165 176 169 163 169 178
343 340 338 335 332 327 322 320 322 18 144 148 130 176 262 298 239 230 166 205 187 193 217 248 181 156 42 87 7 6 227 196 293 230 137 204 210 213 164 192 184 183 179 180 181
343 340 338 336 333 330 321 318 309 99 139 181 253 328 267 298 290 237 179 171 169 89 353 126 60 100 56 99 224 216 212 224 217 348 73 171 255 181 177 193 194 191 193 191 192
342 340 339 336 332 330 330 15 12 339 6 224 223 269 304 323 313 354 136 108 98 116 172 164 127 189 210 190 182 181 228 258 285 260 312 153 203 210 195 213 214 207 199 199 203
341 340 338 335 331 324 351 58 40 262 301 250 247 264 266 34 320 297 132 135 140 195 146 52 215 218 190 164 199 206 251 280 284 253 178 229 210 204 197 211 212 211 206 194 151
340 339 339 334 328 21 33 95 295 326 271 288 218 208 218 154 209 256 153 152 163 169 192 169 232 140 159 191 196 222 189 234 221 301 180 146 293 174 211 224 227 240 241 227 177
339 338 338 335 29 327 321 333 336 259 326 263 239 255 168 155 238 217 194 153 191 199 176 215 245 198 179 216 169 253 199 224 223 159 216 102 269 229 203 211 214 215 208 195 178
338 336 337 338 275 335 282 328 311 194 4 73 111 71 175 161 228 247 168 91 186 196 134 237 202 187 179 225 152 229 221 200 194 167 117 262 118 252 158 213 221 213 190 176 176
336 334 336 15 294 244 308 308 177 51 252 347 351 1 25 347 347 322 131 103 177 184 185 225 256 157 190 209 164 225 160 50 51 105 214 193 150 287 190 197 209 204 194 186 177
335 331 329 271 285 323 325 306 142 146 335 345 345 352 332 325 14 13 52 46 39 145 223 261 249 207 168 221 160 126 76 293 296 199 228 171 126 233 230 250 201 192 196 194 186
335 328 309 242 314 319 341 187 101 2 349 352 326 312 73 7 3 14 56 45 25 12 303 193 279 179 200 188 185 182 161 162 190 196 197 229 225 258 218 218 219 202 200 198 197
336 325 318 315 335 283 342 60 38 360 332 327 315 30 8 354 343 53 67 12 38 5 17 5 263 332 338 247 145 182 156 191 133 190 100 227 292 298 251 35 347 227 166 198 205
330 339 284 338 331 320 31 80 66 25 341 332 16 21 24 350 18 20 54 0 342 355 336 352 298 4 302 344 11 127 160 95 11 157 192 268 266 225 352 3 359 353 334 274 225
16 7 323 338 4 43 72 32 34 24 27 25 12 32 55 2 353 25 20 45 358 333 15 356 20 303 341 45 336 350 23 27 140 138 188 176 259 356 77 48 17 353 355 335 312
349 17 324 341 48 6 24 324 331 8 14 37 34 32 15 5 18 74 81 28 348 335 12 332 337 310 281 9 59 64 17 34 138 196 226 183 204 56 64 45 25 7 349 335 325
348 295 330 8 55 348 321 8 48 34 25 29 23 21 8 18 54 49 38 23 10 27 16 325 10 337 321 13 26 36 14 13 304 45 228 164 224 46 50 42 30 12 0 343 337
16 4 335 28 36 348 352 360 20 26 33 46 38 39 29 20 27 48 30 12 360 30 11 6 336 4 295 3 349 316 351 358 356 308 327 251 354 359 23 19 15 12 6 0 355
23 332 2 332 346 344 4 14 23 14 355 16 39 46 22 18 357 6 5 355 4 29 20 43 298 11 315 302 296 278 275 261 244 268 240 283 325 330 353 33 18 11 11 11 2
56 12 349 299 311 347 356 13 15 358 8 10 20 352 38 57 36 328 337 357 307 339 43 3 295 322 261 259 296 286 286 239 238 249 263 275 283 333 35 51 30 19 10 9 1
316 321 340 298 332 9 329 352 343 358 319 20 360 334 49 332 285 263 251 252 253 268 211 211 228 328 238 12 328 295 241 240 219 244 280 246 34 350 349 26 32 15 10 0 354